This is the latest recevied weather packets stored in our database for station/object KE8ZLU. If no packets are shown the sender has not sent any weather packets the latest 10 day(s).
| Time | Temp. | Humidity | Pressure | Rain* | Wind** | Luminosity | Snow |
|---|---|---|---|---|---|---|---|
| 1777998104 | 10° C | 82% | 1008.6 hPa | 0 mm | - | 588 W/m² | - |
| 1777997800 | 10° C | 85% | 1008.9 hPa | 0 mm | - | 365 W/m² | - |
| 1777997498 | 9.44° C | 84% | 1008.8 hPa | 0 mm | - | 254 W/m² | - |
| 1777997195 | 9.44° C | 84% | 1008.6 hPa | 0 mm | - | 254 W/m² | - |
| 1777996893 | 9.44° C | 84% | 1008.9 hPa | 0 mm | - | 254 W/m² | - |
| 1777996588 | 9.44° C | 84% | 1008.8 hPa | 0 mm | - | 254 W/m² | - |
| 1777996285 | 9.44° C | 84% | 1008.8 hPa | 0 mm | - | 254 W/m² | - |
| 1777995981 | 9.44° C | 84% | 1008.7 hPa | 1.78 mm | - | 254 W/m² | - |
| 1777995677 | 9.44° C | 84% | 1008.9 hPa | 1.78 mm | - | 223 W/m² | - |
| 1777995375 | 9.44° C | 85% | 1008.8 hPa | 0 mm | - | 92 W/m² | - |
| 1777995072 | 9.44° C | 85% | 1008.9 hPa | 0 mm | - | 92 W/m² | - |
| 1777994769 | 9.44° C | 85% | 1008.9 hPa | 0 mm | - | 92 W/m² | - |
| 1777994464 | 9.44° C | 85% | 1009 hPa | 0 mm | - | 92 W/m² | - |
| 1777994159 | 9.44° C | 85% | 1008.5 hPa | 0 mm | - | 92 W/m² | - |
| 1777993858 | 9.44° C | 85% | 1008.5 hPa | 0 mm | - | 92 W/m² | - |
| 1777993553 | 9.44° C | 85% | 1008.7 hPa | 0 mm | - | 92 W/m² | - |
| 1777993250 | 9.44° C | 85% | 1008.6 hPa | 0 mm | - | 92 W/m² | - |
| 1777992946 | 9.44° C | 85% | 1008.5 hPa | 0 mm | - | 92 W/m² | - |
| 1777992644 | 9.44° C | 85% | 1008.4 hPa | 0 mm | - | 92 W/m² | - |
| 1777992342 | 10.56° C | 75% | 1008.4 hPa | 0 mm | - | 117 W/m² | - |
| 1777992039 | 10.56° C | 75% | 1008.3 hPa | 0 mm | - | 117 W/m² | - |
| 1777991737 | 10.56° C | 75% | 1008.5 hPa | 0 mm | - | 117 W/m² | - |
| 1777991434 | 10.56° C | 75% | 1008.5 hPa | 0 mm | - | 117 W/m² | - |
| 1777991131 | 10.56° C | 75% | 1008.1 hPa | 0 mm | - | 117 W/m² | - |
| 1777990828 | 10.56° C | 75% | 1008.2 hPa | 0 mm | - | 117 W/m² | - |
* Rain latest hour (hover to see other rain measurements)
** Current wind speed in m/s (hover to see current wind gust speed)